N900RH KMKE-KAPF

Flight info

Callsign N900RH
Flight time N/A
Altitude 41000
Route UECKR6 DELHI PXV/N0477F410 HITMN Q19 BULZI Q81 NICKI/N0474F430 PLYER PIKKR7
Aircraft GLF5/M-SBDE2E3FGHIJ3J4J5P2RWXY/LB1D1

Departure

Time N/A
Airport General Mitchell International Airport (KMKE)

Arrival

Time 2026-04-21 01:16
Airport Naples Municipal Airport (KAPF)
Time Latitude Longitude Altitude Speed Heading
2026-04-21 00:41 29.22098 -83.34190 41207 ft 515 kts 186°
2026-04-21 00:42 29.17401 -83.34051 41173 ft 511 kts 187°
2026-04-21 00:42 29.10252 -83.33897 41187 ft 510 kts 187°
2026-04-21 00:43 29.03197 -83.33748 41222 ft 510 kts 188°
2026-04-21 00:43 28.96056 -83.33598 41180 ft 509 kts 188°
2026-04-21 00:44 28.89023 -83.33787 41200 ft 506 kts 191°
2026-04-21 00:44 28.82821 -83.34031 41236 ft 503 kts 191°
2026-04-21 00:45 28.72327 -83.34435 41200 ft 495 kts 191°
2026-04-21 00:45 28.68903 -83.34566 40966 ft 492 kts 191°
2026-04-21 00:45 28.65482 -83.34700 40804 ft 494 kts 191°
2026-04-21 00:46 28.58534 -83.34970 40465 ft 501 kts 191°
2026-04-21 00:46 28.55027 -83.35103 40224 ft 500 kts 191°
2026-04-21 00:46 28.51564 -83.35237 39619 ft 503 kts 191°
2026-04-21 00:47 28.48069 -83.35369 38978 ft 499 kts 191°
2026-04-21 00:47 28.44630 -83.35502 38343 ft 495 kts 192°
2026-04-21 00:47 28.41181 -83.35635 37774 ft 495 kts 192°
2026-04-21 00:47 28.37759 -83.35769 37134 ft 493 kts 191°
2026-04-21 00:48 28.34296 -83.35903 36483 ft 492 kts 191°
2026-04-21 00:48 28.30929 -83.36031 35841 ft 486 kts 192°
2026-04-21 00:48 28.27559 -83.36161 35267 ft 482 kts 192°
2026-04-21 00:48 28.24198 -83.36381 35164 ft 476 kts 193°
2026-04-21 00:49 28.20880 -83.36609 35063 ft 482 kts 192°
2026-04-21 00:49 28.17485 -83.36838 34942 ft 484 kts 192°
2026-04-21 00:49 28.14121 -83.37065 34827 ft 485 kts 192°
2026-04-21 00:49 28.10678 -83.37046 34695 ft 493 kts 187°
2026-04-21 00:50 28.07263 -83.36942 34580 ft 493 kts 187°
2026-04-21 00:50 28.03845 -83.36858 34412 ft 491 kts 187°
2026-04-21 00:50 27.96977 -83.36706 34210 ft 491 kts 187°
2026-04-21 00:51 27.93567 -83.36632 34082 ft 492 kts 187°
2026-04-21 00:51 27.90152 -83.36557 33959 ft 493 kts 187°
2026-04-21 00:51 27.86864 -83.36485 33815 ft 494 kts 187°
2026-04-21 00:51 27.83372 -83.36409 33630 ft 496 kts 187°
2026-04-21 00:52 27.79958 -83.36335 33492 ft 493 kts 188°
2026-04-21 00:52 27.76485 -83.36260 33380 ft 495 kts 187°
2026-04-21 00:52 27.73022 -83.36186 33253 ft 496 kts 187°
2026-04-21 00:52 27.69593 -83.36111 33058 ft 496 kts 187°
2026-04-21 00:53 27.66162 -83.36036 32926 ft 495 kts 187°
2026-04-21 00:53 27.62706 -83.35961 32760 ft 494 kts 187°
2026-04-21 00:53 27.59239 -83.35886 32594 ft 496 kts 187°
2026-04-21 00:53 27.55793 -83.35812 32456 ft 498 kts 187°
2026-04-21 00:54 27.52295 -83.35737 32301 ft 498 kts 187°
2026-04-21 00:54 27.48811 -83.35477 32100 ft 508 kts 178°
2026-04-21 00:54 27.45382 -83.34283 31895 ft 526 kts 163°
2026-04-21 00:54 27.42171 -83.32143 31702 ft 541 kts 149°
2026-04-21 00:55 27.39440 -83.29179 31496 ft 552 kts 133°
2026-04-21 00:55 27.37388 -83.25555 31271 ft 558 kts 118°
2026-04-21 00:55 27.35608 -83.21685 30992 ft 556 kts 123°
2026-04-21 00:55 27.33578 -83.18000 30405 ft 556 kts 126°
2026-04-21 00:56 27.31459 -83.14364 29715 ft 551 kts 126°
2026-04-21 00:56 27.29357 -83.10808 28974 ft 546 kts 127°
2026-04-21 00:56 27.27249 -83.07265 28269 ft 546 kts 127°
2026-04-21 00:56 27.25149 -83.03739 27540 ft 547 kts 126°
2026-04-21 00:57 27.23043 -83.00206 26835 ft 548 kts 126°
2026-04-21 00:57 27.20907 -82.96626 26085 ft 549 kts 127°
2026-04-21 00:57 27.18796 -82.93089 25364 ft 537 kts 126°
2026-04-21 00:57 27.16754 -82.89670 24658 ft 518 kts 126°
2026-04-21 00:58 27.14791 -82.86396 23991 ft 499 kts 127°
2026-04-21 00:58 27.12509 -82.83571 23321 ft 476 kts 142°
2026-04-21 00:58 27.09915 -82.81401 22716 ft 457 kts 148°
2026-04-21 00:58 27.07360 -82.79398 22130 ft 443 kts 149°
2026-04-21 00:59 27.04831 -82.77431 21547 ft 440 kts 148°
2026-04-21 00:59 27.02324 -82.75486 20979 ft 439 kts 148°
2026-04-21 00:59 26.99816 -82.73541 20381 ft 435 kts 148°
2026-04-21 00:59 26.97362 -82.71641 19810 ft 432 kts 148°
2026-04-21 01:00 26.94883 -82.69720 19246 ft 429 kts 148°
2026-04-21 01:00 26.92595 -82.67597 18673 ft 429 kts 138°
2026-04-21 01:00 26.90442 -82.65327 18106 ft 426 kts 138°
2026-04-21 01:00 26.88265 -82.63045 17537 ft 423 kts 138°
2026-04-21 01:01 26.86134 -82.60817 16982 ft 417 kts 138°
2026-04-21 01:01 26.84053 -82.58643 16435 ft 411 kts 137°
2026-04-21 01:01 26.81978 -82.56477 15898 ft 405 kts 137°
2026-04-21 01:01 26.79928 -82.54339 15363 ft 399 kts 137°
2026-04-21 01:02 26.77885 -82.52209 14822 ft 395 kts 137°
2026-04-21 01:02 26.75888 -82.50128 14303 ft 391 kts 137°
2026-04-21 01:02 26.73920 -82.48080 13805 ft 386 kts 136°
2026-04-21 01:02 26.71964 -82.46043 13291 ft 380 kts 136°
2026-04-21 01:03 26.70026 -82.44027 12783 ft 377 kts 136°
2026-04-21 01:03 26.68130 -82.42055 12290 ft 374 kts 136°
2026-04-21 01:03 26.66209 -82.40060 11786 ft 370 kts 136°
2026-04-21 01:03 26.64329 -82.38107 11291 ft 364 kts 136°
2026-04-21 01:04 26.62324 -82.36446 11162 ft 361 kts 146°
2026-04-21 01:04 26.60194 -82.34898 11162 ft 363 kts 146°
2026-04-21 01:04 26.58476 -82.33650 11154 ft 363 kts 146°
2026-04-21 01:04 26.56616 -82.32301 11156 ft 364 kts 146°
2026-04-21 01:05 26.54453 -82.30731 11165 ft 364 kts 146°
2026-04-21 01:05 26.52340 -82.29198 11167 ft 365 kts 146°
2026-04-21 01:05 26.50203 -82.27650 11165 ft 364 kts 146°
2026-04-21 01:05 26.48068 -82.26102 11158 ft 363 kts 146°
2026-04-21 01:06 26.45932 -82.24554 11163 ft 364 kts 146°
2026-04-21 01:06 26.43815 -82.23021 11170 ft 363 kts 146°
2026-04-21 01:06 26.41681 -82.21477 11164 ft 364 kts 146°
2026-04-21 01:06 26.39570 -82.19949 11159 ft 363 kts 146°
2026-04-21 01:07 26.37431 -82.18403 11162 ft 363 kts 146°
2026-04-21 01:07 26.35312 -82.16871 11071 ft 364 kts 146°
2026-04-21 01:07 26.33192 -82.15340 10735 ft 363 kts 146°
2026-04-21 01:07 26.31083 -82.13817 10264 ft 358 kts 146°
2026-04-21 01:08 26.29004 -82.12316 9802 ft 354 kts 146°
2026-04-21 01:08 26.26954 -82.10836 9311 ft 350 kts 146°
2026-04-21 01:08 26.24887 -82.09345 8843 ft 347 kts 146°
2026-04-21 01:08 26.22882 -82.07901 8406 ft 345 kts 146°
2026-04-21 01:09 26.20860 -82.06444 7941 ft 338 kts 145°
2026-04-21 01:09 26.18914 -82.05042 7472 ft 328 kts 145°
2026-04-21 01:09 26.17048 -82.03699 7019 ft 318 kts 145°
2026-04-21 01:09 26.15200 -82.02368 6627 ft 308 kts 145°
2026-04-21 01:10 26.13437 -82.01100 6234 ft 301 kts 145°
2026-04-21 01:10 26.11688 -81.99843 5840 ft 294 kts 144°
2026-04-21 01:10 26.09974 -81.98611 5457 ft 288 kts 144°
2026-04-21 01:10 26.08377 -81.97349 5142 ft 276 kts 134°
2026-04-21 01:11 26.07043 -81.95856 4762 ft 271 kts 130°
2026-04-21 01:11 26.05746 -81.94370 4377 ft 267 kts 130°
2026-04-21 01:11 26.04715 -81.92771 3935 ft 236 kts 102°
2026-04-21 01:11 26.04792 -81.91166 3930 ft 195 kts 68°
2026-04-21 01:12 26.05308 -81.89759 3590 ft 204 kts 61°
2026-04-21 01:12 26.06048 -81.88446 3074 ft 197 kts 55°
2026-04-21 01:12 26.06825 -81.87294 2842 ft 170 kts 52°
2026-04-21 01:12 26.07546 -81.86327 2548 ft 159 kts 50°
2026-04-21 01:13 26.08227 -81.85471 2259 ft 137 kts 49°
2026-04-21 01:13 26.08863 -81.84705 2064 ft 135 kts 49°
2026-04-21 01:13 26.09496 -81.83962 1876 ft 124 kts 48°
2026-04-21 01:13 26.10033 -81.83349 1651 ft 97 kts 47°
2026-04-21 01:14 26.10485 -81.82837 1507 ft 89 kts 48°
2026-04-21 01:14 26.10934 -81.82331 1404 ft 92 kts 47°
2026-04-21 01:14 26.11392 -81.81810 1224 ft 98 kts 48°
2026-04-21 01:14 26.11865 -81.81264 1016 ft 94 kts 48°
2026-04-21 01:15 26.12338 -81.80720 762 ft 97 kts 48°
2026-04-21 01:15 26.12848 -81.80167 561 ft 106 kts 45°
2026-04-21 01:15 26.13396 -81.79587 415 ft 109 kts 46°
2026-04-21 01:15 26.13934 -81.78987 257 ft 110 kts 46°
2026-04-21 01:16 26.14488 -81.78396 103 ft 110 kts 45°
2026-04-21 01:16 26.15021 -81.77814 11 ft 95 kts 45°
2026-04-21 01:16 26.15314 -81.77498 11 ft 27 kts 44°
2026-04-21 01:16 26.15336 -81.77409 11 ft 12 kts 135°
2026-04-21 01:17 26.15308 -81.77325 11 ft 12 kts 88°
2026-04-21 01:17 26.15318 -81.77211 11 ft 23 kts 81°
2026-04-21 01:17 26.15320 -81.77132 11 ft 0 kts 90°